When you browse on this site, cookies collect data to enhance your experience and personalize the content and advertising you see.
Visit our Privacy Policy to learn more. By continuing to use the site, you agree to this use of cookies and data.
  • In Austria
  • List of Countries
  • For 7 days
  • Water Temperature
  • Satellite Maps
  • Weather Map
  • News
  • Weather Widgets
  • user-avatar
    Login

    Hourly Weather Satif

    Today, 25 June, Tuesday

    Time Temperature Precipitation Wind Pressure Humidity
    00:00 +28°C° 0 mm 3 mps 674 mmHg 13%
    01:00 +28°C° 0 mm 3 mps 674 mmHg 14%
    02:00 +28°C° 0 mm 3 mps 674 mmHg 14%
    03:00 +27°C° 0 mm 3 mps 674 mmHg 14%
    04:00 +28°C° 0 mm 3 mps 674 mmHg 15%
    05:00 +29°C° 0 mm 2 mps 675 mmHg 15%
    06:00 +30°C° 0 mm 2 mps 676 mmHg 15%
    07:00 +33°C° 0 mm 4 mps 676 mmHg 13%
    08:00 +35°C° 0 mm 5 mps 677 mmHg 11%
    09:00 +38°C° 0 mm 7 mps 678 mmHg 9%
    10:00 +39°C° 0 mm 7 mps 678 mmHg 8%
    11:00 +40°C° 0 mm 6 mps 678 mmHg 8%
    12:00 +40°C° 0 mm 6 mps 678 mmHg 8%
    13:00 +40°C° 0 mm 6 mps 678 mmHg 8%
    14:00 +40°C° 0 mm 5 mps 678 mmHg 8%
    15:00 +40°C° 0 mm 5 mps 678 mmHg 8%
    16:00 +40°C° 0 mm 5 mps 677 mmHg 9%
    17:00 +38°C° 0 mm 4 mps 677 mmHg 9%
    18:00 +37°C° 0 mm 4 mps 677 mmHg 10%
    19:00 +35°C° 0 mm 3 mps 677 mmHg 13%
    20:00 +33°C° 0 mm 3 mps 677 mmHg 17%
    21:00 +30°C° 0 mm 2 mps 677 mmHg 20%
    22:00 +29°C° 0 mm 2 mps 676 mmHg 20%
    23:00 +28°C° 0 mm 2 mps 676 mmHg 20%

    Tomorrow, 26 June, Wednesday

    Time Temperature Precipitation Wind Pressure Humidity
    00:00 +28°C° 0 mm 2 mps 676 mmHg 20%
    01:00 +27°C° 0 mm 2 mps 676 mmHg 21%
    02:00 +26°C° 0 mm 1 mps 675 mmHg 23%
    03:00 +25°C° 0 mm 1 mps 675 mmHg 24%
    04:00 +27°C° 0 mm 1 mps 675 mmHg 23%
    05:00 +29°C° 0 mm 1 mps 676 mmHg 21%
    06:00 +30°C° 0 mm 1 mps 677 mmHg 20%
    07:00 +32°C° 0 mm 1 mps 677 mmHg 17%
    08:00 +35°C° 0 mm 2 mps 678 mmHg 13%
    09:00 +37°C° 0 mm 2 mps 678 mmHg 10%
    10:00 +38°C° 0 mm 2 mps 679 mmHg 10%
    11:00 +37°C° 0 mm 1 mps 679 mmHg 9%
    12:00 +39°C° 0 mm 1 mps 679 mmHg 8%
    13:00 +39°C° 0 mm 3 mps 678 mmHg 9%
    14:00 +40°C° 0 mm 5 mps 678 mmHg 9%
    15:00 +40°C° 0 mm 7 mps 678 mmHg 10%
    16:00 +39°C° 0 mm 6 mps 678 mmHg 11%
    17:00 +39°C° 0 mm 6 mps 677 mmHg 11%
    18:00 +38°C° 0 mm 6 mps 677 mmHg 12%
    19:00 +35°C° 0 mm 5 mps 677 mmHg 14%
    20:00 +33°C° 0 mm 3 mps 677 mmHg 17%
    21:00 +30°C° 0 mm 2 mps 677 mmHg 19%
    22:00 +28°C° 0 mm 2 mps 676 mmHg 22%
    23:00 +27°C° 0 mm 1 mps 676 mmHg 24%

    Day after tomorrow, 27 June, Thursday

    Time Temperature Precipitation Wind Pressure Humidity
    00:00 +26°C° 0 mm 1 mps 676 mmHg 27%
    01:00 +26°C° 0 mm 1 mps 675 mmHg 27%
    02:00 +25°C° 0 mm 1 mps 675 mmHg 28%
    03:00 +25°C° 0 mm 1 mps 675 mmHg 29%
    04:00 +26°C° 0 mm 1 mps 675 mmHg 27%
    05:00 +27°C° 0 mm 1 mps 675 mmHg 25%
    06:00 +27°C° 0 mm 0 mps 676 mmHg 23%
    07:00 +28°C° 0 mm 0 mps 676 mmHg 20%
    08:00 +32°C° 0 mm 1 mps 677 mmHg 18%
    09:00 +33°C° 0 mm 1 mps 677 mmHg 15%
    10:00 +35°C° 0 mm 3 mps 677 mmHg 13%
    11:00 +36°C° 0 mm 4 mps 677 mmHg 12%
    12:00 +39°C° 0 mm 6 mps 678 mmHg 11%
    13:00 +38°C° 0 mm 6 mps 677 mmHg 12%
    14:00 +36°C° 0 mm 7 mps 676 mmHg 14%
    15:00 +36°C° 0 mm 7 mps 676 mmHg 15%
    16:00 +34°C° 0 mm 6 mps 676 mmHg 18%
    17:00 +33°C° 0 mm 6 mps 675 mmHg 21%
    18:00 +30°C° 0 mm 6 mps 675 mmHg 24%
    19:00 +28°C° 0 mm 5 mps 675 mmHg 29%
    20:00 +27°C° 0 mm 4 mps 675 mmHg 34%
    21:00 +25°C° 0 mm 2 mps 675 mmHg 39%
    22:00 +24°C° 0 mm 2 mps 675 mmHg 41%
    23:00 +24°C° 0 mm 1 mps 674 mmHg 42%

    28 June, Friday

    Time Temperature Precipitation Wind Pressure Humidity
    00:00 +23°C° 0 mm 1 mps 674 mmHg 44%
    01:00 +23°C° 0 mm 1 mps 674 mmHg 45%
    02:00 +22°C° 0 mm 1 mps 673 mmHg 46%
    03:00 +22°C° 0 mm 1 mps 673 mmHg 46%
    04:00 +23°C° 0 mm 1 mps 673 mmHg 43%
    05:00 +24°C° 0 mm 1 mps 674 mmHg 40%
    06:00 +25°C° 0 mm 1 mps 674 mmHg 37%
    07:00 +26°C° 0 mm 1 mps 674 mmHg 33%
    08:00 +28°C° 0 mm 1 mps 675 mmHg 29%
    09:00 +30°C° 0 mm 1 mps 675 mmHg 25%
    10:00 +31°C° 0 mm 1 mps 675 mmHg 22%
    11:00 +32°C° 0 mm 1 mps 675 mmHg 19%
    12:00 +34°C° 0 mm 2 mps 676 mmHg 16%
    13:00 +35°C° 0 mm 3 mps 675 mmHg 16%
    14:00 +35°C° 0 mm 4 mps 675 mmHg 16%
    15:00 +35°C° 0 mm 5 mps 675 mmHg 16%
    16:00 +34°C° 0 mm 5 mps 674 mmHg 19%
    17:00 +33°C° 0 mm 5 mps 674 mmHg 23%
    18:00 +30°C° 0 mm 5 mps 674 mmHg 26%
    19:00 +29°C° 0 mm 4 mps 674 mmHg 29%
    20:00 +27°C° 0 mm 3 mps 674 mmHg 32%
    21:00 +26°C° 0 mm 2 mps 674 mmHg 35%
    22:00 +25°C° 0 mm 2 mps 673 mmHg 36%
    23:00 +24°C° 0 mm 2 mps 673 mmHg 37%

    29 June, Saturday

    Time Temperature Precipitation Wind Pressure Humidity
    00:00 +23°C° 0 mm 2 mps 673 mmHg 38%
    01:00 +23°C° 0 mm 1 mps 672 mmHg 38%
    02:00 +22°C° 0 mm 1 mps 672 mmHg 38%
    03:00 +21°C° 0 mm 1 mps 672 mmHg 39%
    04:00 +23°C° 0 mm 1 mps 672 mmHg 35%
    05:00 +24°C° 0 mm 1 mps 673 mmHg 31%
    06:00 +25°C° 0 mm 1 mps 673 mmHg 27%
    07:00 +27°C° 0 mm 1 mps 674 mmHg 24%
    08:00 +29°C° 0 mm 1 mps 675 mmHg 22%
    09:00 +31°C° 0 mm 1 mps 675 mmHg 19%
    10:00 +32°C° 0 mm 1 mps 675 mmHg 16%
    11:00 +33°C° 0 mm 1 mps 675 mmHg 14%
    12:00 +35°C° 0 mm 1 mps 675 mmHg 11%
    13:00 +36°C° 0 mm 2 mps 675 mmHg 11%
    14:00 +36°C° 0 mm 3 mps 675 mmHg 11%
    15:00 +37°C° 0 mm 3 mps 675 mmHg 11%
    16:00 +36°C° 0 mm 4 mps 675 mmHg 13%
    17:00 +35°C° 0 mm 5 mps 674 mmHg 14%
    18:00 +34°C° 0 mm 6 mps 674 mmHg 16%
    19:00 +33°C° 0 mm 5 mps 674 mmHg 20%
    20:00 +30°C° 0 mm 4 mps 674 mmHg 25%
    21:00 +28°C° 0 mm 2 mps 674 mmHg 29%
    22:00 +27°C° 0 mm 2 mps 674 mmHg 31%
    23:00 +26°C° 0 mm 2 mps 674 mmHg 33%

    30 June, Sunday

    Time Temperature Precipitation Wind Pressure Humidity
    00:00 +25°C° 0 mm 1 mps 673 mmHg 36%
    01:00 +25°C° 0 mm 1 mps 673 mmHg 36%
    02:00 +24°C° 0 mm 1 mps 673 mmHg 37%
    03:00 +24°C° 0 mm 1 mps 673 mmHg 37%
    04:00 +25°C° 0 mm 1 mps 673 mmHg 34%
    05:00 +27°C° 0 mm 1 mps 674 mmHg 31%
    06:00 +28°C° 0 mm 1 mps 674 mmHg 28%
    07:00 +30°C° 0 mm 1 mps 675 mmHg 25%
    08:00 +31°C° 0 mm 1 mps 676 mmHg 22%
    09:00 +33°C° 0 mm 1 mps 676 mmHg 18%
    10:00 +34°C° 0 mm 1 mps 676 mmHg 16%
    11:00 +35°C° 0 mm 1 mps 676 mmHg 14%
    12:00 +36°C° 0 mm 1 mps 676 mmHg 11%
    13:00 +36°C° 0 mm 1 mps 676 mmHg 11%
    14:00 +37°C° 0 mm 2 mps 676 mmHg 11%
    15:00 +38°C° 0 mm 2 mps 675 mmHg 11%
    16:00 +37°C° 0 mm 4 mps 675 mmHg 12%
    17:00 +36°C° 0 mm 5 mps 675 mmHg 14%
    18:00 +35°C° 0 mm 6 mps 674 mmHg 15%
    19:00 +33°C° 0 mm 4 mps 674 mmHg 18%
    20:00 +30°C° 0 mm 3 mps 674 mmHg 21%
    21:00 +28°C° 0 mm 2 mps 674 mmHg 24%
    22:00 +28°C° 0 mm 1 mps 674 mmHg 24%
    23:00 +27°C° 0 mm 1 mps 673 mmHg 25%
    Show more